TimeCDT,TemperatureF,Dew PointF,Humidity,Sea Level PressureIn,VisibilityMPH,Wind Direction,Wind SpeedMPH,Gust SpeedMPH,PrecipitationIn,Events,Conditions,WindDirDegrees,DateUTC
12:15 AM,60.8,48.2,63,29.95,10.0,South,8.1,-,N/A,,Clear,170,2013-10-12 05:15:00
12:35 AM,60.8,48.2,63,29.94,10.0,South,11.5,-,N/A,,Clear,170,2013-10-12 05:35:00
12:55 AM,60.8,51.8,72,29.94,10.0,South,10.4,17.3,N/A,,Clear,180,2013-10-12 05:55:00
1:15 AM,60.8,51.8,72,29.93,10.0,South,12.7,-,N/A,,Clear,180,2013-10-12 06:15:00
1:35 AM,60.8,51.8,72,29.93,10.0,South,10.4,-,N/A,,Clear,180,2013-10-12 06:35:00
1:55 AM,60.8,51.8,72,29.93,10.0,South,11.5,16.1,N/A,,Clear,180,2013-10-12 06:55:00
2:15 AM,60.8,51.8,72,29.93,10.0,South,10.4,-,N/A,,Clear,180,2013-10-12 07:15:00
2:35 AM,60.8,51.8,72,29.93,10.0,South,10.4,-,N/A,,Clear,190,2013-10-12 07:35:00
2:55 AM,60.8,51.8,72,29.93,10.0,South,9.2,-,N/A,,Clear,180,2013-10-12 07:55:00
3:15 AM,60.8,53.6,77,29.92,10.0,South,10.4,-,N/A,,Clear,180,2013-10-12 08:15:00
3:35 AM,60.8,53.6,77,29.92,10.0,South,11.5,17.3,N/A,,Clear,180,2013-10-12 08:35:00
3:55 AM,60.8,53.6,77,29.91,10.0,South,11.5,18.4,N/A,,Clear,190,2013-10-12 08:55:00
4:15 AM,60.8,53.6,77,29.91,10.0,South,9.2,-,N/A,,Clear,180,2013-10-12 09:15:00
4:35 AM,60.8,53.6,77,29.91,10.0,South,10.4,-,N/A,,Clear,180,2013-10-12 09:35:00
4:55 AM,60.8,55.4,82,29.91,10.0,South,13.8,20.7,N/A,,Clear,180,2013-10-12 09:55:00
5:15 AM,60.8,55.4,82,29.91,10.0,South,12.7,18.4,N/A,,Clear,180,2013-10-12 10:15:00
5:35 AM,60.8,55.4,82,29.90,10.0,South,11.5,21.9,N/A,,Clear,180,2013-10-12 10:35:00
5:55 AM,60.8,55.4,82,29.90,10.0,South,12.7,18.4,N/A,,Clear,180,2013-10-12 10:55:00
6:15 AM,60.8,55.4,82,29.90,10.0,South,12.7,19.6,N/A,,Clear,180,2013-10-12 11:15:00
6:35 AM,60.8,57.2,88,29.89,10.0,South,15.0,20.7,N/A,,Clear,180,2013-10-12 11:35:00
6:55 AM,60.8,57.2,88,29.90,10.0,South,17.3,23.0,N/A,,Clear,170,2013-10-12 11:55:00
7:15 AM,60.8,57.2,88,29.90,10.0,South,12.7,18.4,N/A,,Clear,180,2013-10-12 12:15:00
7:35 AM,62.6,57.2,82,29.91,10.0,South,15.0,23.0,N/A,,Scattered Clouds,190,2013-10-12 12:35:00
7:55 AM,62.6,57.2,82,29.91,10.0,South,17.3,21.9,N/A,,Partly Cloudy,180,2013-10-12 12:55:00
8:15 AM,62.6,57.2,82,29.91,10.0,South,17.3,25.3,N/A,,Clear,180,2013-10-12 13:15:00
8:35 AM,62.6,57.2,82,29.90,9.0,South,15.0,23.0,N/A,,Mostly Cloudy,180,2013-10-12 13:35:00
8:55 AM,62.6,57.2,82,29.89,10.0,South,12.7,23.0,N/A,,Mostly Cloudy,180,2013-10-12 13:55:00
9:15 AM,62.6,59.0,88,29.90,10.0,South,12.7,19.6,N/A,,Partly Cloudy,180,2013-10-12 14:15:00
9:35 AM,62.6,57.2,82,29.90,10.0,South,10.4,17.3,N/A,,Scattered Clouds,180,2013-10-12 14:35:00
9:55 AM,64.4,59.0,83,29.90,9.0,SSW,9.2,-,N/A,,Mostly Cloudy,200,2013-10-12 14:55:00
10:15 AM,64.4,59.0,83,29.91,10.0,SSW,11.5,16.1,N/A,,Mostly Cloudy,200,2013-10-12 15:15:00
10:35 AM,64.4,57.2,77,29.90,10.0,SSW,9.2,18.4,N/A,,Overcast,200,2013-10-12 15:35:00
10:55 AM,64.4,57.2,77,29.90,10.0,SSW,10.4,-,N/A,,Overcast,200,2013-10-12 15:55:00
11:15 AM,64.4,57.2,77,29.90,10.0,SSW,8.1,-,N/A,,Overcast,200,2013-10-12 16:15:00
11:35 AM,64.4,57.2,77,29.90,10.0,SSW,12.7,16.1,N/A,,Overcast,200,2013-10-12 16:35:00
11:55 AM,64.4,57.2,77,29.89,9.0,SSW,10.4,19.6,N/A,Thunderstorm,Overcast,200,2013-10-12 16:55:00
12:15 PM,62.6,59.0,88,29.90,3.0,SW,13.8,19.6,0.09,Thunderstorm,Thunderstorm,220,2013-10-12 17:15:00
12:35 PM,60.8,59.0,94,29.88,5.0,SSW,11.5,-,0.14,,Overcast,200,2013-10-12 17:35:00
12:55 PM,62.6,59.0,88,29.87,6.0,South,8.1,-,0.14,Thunderstorm,Overcast,190,2013-10-12 17:55:00
1:15 PM,64.4,60.8,88,29.87,7.0,South,10.4,-,N/A,,Mostly Cloudy,190,2013-10-12 18:15:00
1:35 PM,62.6,59.0,88,29.87,7.0,South,10.4,-,N/A,,Mostly Cloudy,190,2013-10-12 18:35:00
1:55 PM,62.6,60.8,94,29.87,7.0,SSW,10.4,-,N/A,,Scattered Clouds,200,2013-10-12 18:55:00
2:15 PM,62.6,59.0,88,29.87,8.0,SSW,13.8,18.4,N/A,,Scattered Clouds,200,2013-10-12 19:15:00
2:35 PM,64.4,59.0,83,29.87,8.0,SW,12.7,19.6,N/A,,Partly Cloudy,230,2013-10-12 19:35:00
2:55 PM,64.4,60.8,88,29.87,9.0,SSW,10.4,-,N/A,,Scattered Clouds,210,2013-10-12 19:55:00
3:15 PM,64.4,59.0,83,29.86,8.0,South,10.4,-,N/A,,Mostly Cloudy,190,2013-10-12 20:15:00
3:35 PM,64.4,59.0,83,29.86,7.0,SSW,10.4,-,N/A,,Mostly Cloudy,210,2013-10-12 20:35:00
3:55 PM,64.4,60.8,88,29.86,8.0,SW,12.7,-,N/A,,Partly Cloudy,220,2013-10-12 20:55:00
4:15 PM,66.2,60.8,83,29.87,8.0,South,10.4,-,N/A,,Partly Cloudy,190,2013-10-12 21:15:00
4:35 PM,64.4,60.8,88,29.87,9.0,South,12.7,16.1,N/A,,Partly Cloudy,190,2013-10-12 21:35:00
4:55 PM,62.6,60.8,94,29.88,6.0,South,10.4,-,N/A,,Partly Cloudy,170,2013-10-12 21:55:00
5:15 PM,64.4,60.8,88,29.89,7.0,South,10.4,-,N/A,,Scattered Clouds,170,2013-10-12 22:15:00
5:35 PM,64.4,60.8,88,29.89,7.0,SSW,9.2,-,N/A,,Partly Cloudy,210,2013-10-12 22:35:00
5:55 PM,64.4,59.0,83,29.91,9.0,SW,6.9,-,N/A,,Scattered Clouds,230,2013-10-12 22:55:00
6:15 PM,64.4,51.8,64,29.92,10.0,WSW,9.2,-,N/A,,Partly Cloudy,250,2013-10-12 23:15:00
6:35 PM,62.6,44.6,52,29.93,10.0,West,5.8,-,N/A,,Clear,260,2013-10-12 23:35:00
6:55 PM,60.8,44.6,55,29.95,10.0,West,5.8,-,N/A,,Clear,260,2013-10-12 23:55:00
7:15 PM,59.0,44.6,59,29.96,10.0,West,4.6,-,N/A,,Clear,260,2013-10-13 00:15:00
7:35 PM,59.0,44.6,59,29.97,10.0,West,6.9,-,N/A,,Clear,270,2013-10-13 00:35:00
7:55 PM,57.2,42.8,59,29.98,10.0,West,5.8,-,N/A,,Clear,270,2013-10-13 00:55:00
8:15 PM,57.2,42.8,59,29.99,10.0,West,4.6,-,N/A,,Clear,260,2013-10-13 01:15:00
8:35 PM,57.2,42.8,59,30.00,10.0,West,5.8,-,N/A,,Clear,270,2013-10-13 01:35:00
8:55 PM,55.4,42.8,63,30.01,10.0,West,4.6,-,N/A,,Clear,270,2013-10-13 01:55:00
9:15 PM,55.4,42.8,63,30.02,10.0,West,4.6,-,N/A,,Clear,260,2013-10-13 02:15:00
9:35 PM,53.6,41.0,62,30.02,10.0,WSW,5.8,-,N/A,,Clear,250,2013-10-13 02:35:00
9:55 PM,53.6,41.0,62,30.02,10.0,WSW,3.5,-,N/A,,Clear,250,2013-10-13 02:55:00
10:15 PM,51.8,41.0,67,30.02,10.0,SW,3.5,-,N/A,,Clear,230,2013-10-13 03:15:00
10:35 PM,53.6,41.0,62,30.03,10.0,WSW,5.8,-,N/A,,Clear,250,2013-10-13 03:35:00
10:55 PM,51.8,41.0,67,30.03,10.0,WSW,6.9,-,N/A,,Clear,240,2013-10-13 03:55:00
11:15 PM,51.8,41.0,67,30.03,10.0,WSW,8.1,-,N/A,,Clear,240,2013-10-13 04:15:00
11:35 PM,51.8,39.2,62,30.04,10.0,WSW,6.9,-,N/A,,Clear,250,2013-10-13 04:35:00
11:55 PM,51.8,37.4,58,30.05,10.0,West,10.4,-,N/A,,Clear,260,2013-10-13 04:55:00